Weather History for Berlin, NH

Change the Weather History Date:

Thursday, September 27, 2012

  Actual Average Record
Temperature  
Mean Temperature 44 °F -  
Max Temperature 57 °F 62 °F 80 °F (2007)
Min Temperature 32 °F 34 °F 28 °F (2000)
Degree Days  
Heating Degree Days 20    
Moisture  
Dew Point 39 °F    
Average Humidity 84    
Maximum Humidity 100    
Minimum Humidity 45    
Precipitation  
Precipitation 0.19 in - - ()
Sea Level Pressure  
Sea Level Pressure 30.17 in    
Wind  
Wind Speed 4 mph (NNW)    
Max Wind Speed 14 mph    
Max Gust Speed 20 mph    
Visibility 5 miles    
Events Fog , Rain    
Averages and records for this station are not official NWS values.
T = Trace of Precipitation, MM = Missing Value Source: NWS Daily Summary

Daily Weather History Graph

Daily Weather History Graph

Search for Another Location

Airport:

Trip Planner

Search our weather history database for the weather conditions in past years. The results will help you decide how hot, cold, wet, or windy it might be!

Date:

Astronomy

Sep. 27, 2012 Rise Set
Actual Time 6:38 AM EDT 6:31 PM EDT
Civil Twilight 6:09 AM EDT 7:00 PM EDT
Nautical Twilight 5:35 AM EDT 7:34 PM EDT
Astronomical Twilight 5:00 AM EDT 8:09 PM EDT
Moon 5:05 PM EDT (9/27) 3:59 AM EDT (9/27)
Length of Visible Light 12h 51m
Length of Day
11h 53m
Waxing Gibbous, 94% of the Moon is Illuminated
Sep 27
Waxing Gibbous
Sep 29
Full
Oct 8
Last Quarter
Oct 15
New
Oct 21
First Quarter

Hourly Weather History & Observations

Time (EDT) Temp. Windchill Dew Point Humidity Pressure Visibility Wind Dir Wind Speed Gust Speed Precip Events Conditions
12:02 AM 55.4 °F - 53.6 °F 94% 30.01 in 2.0 mi NW 6.9 mph - 0.07 in Rain Heavy Rain
12:16 AM 55.4 °F - 53.6 °F 94% 30.01 in 4.0 mi NNW 8.1 mph - 0.11 in Rain Rain
12:52 AM 54.0 °F - 51.1 °F 90% 30.05 in 6.0 mi North 5.8 mph - 0.16 in Rain Rain
1:52 AM 52.0 °F - 48.0 °F 86% 30.06 in 10.0 mi NNW 4.6 mph - 0.02 in   Overcast
2:52 AM 50.0 °F - 46.0 °F 86% 30.06 in 10.0 mi North 3.5 mph - N/A   Overcast
3:52 AM 48.9 °F - 46.0 °F 90% 30.07 in 10.0 mi SSE 3.5 mph - N/A   Overcast
4:52 AM 45.0 °F - 44.1 °F 97% 30.10 in 9.0 mi Calm Calm - N/A   Scattered Clouds
5:06 AM 42.8 °F - 42.8 °F 100% 30.10 in 2.5 mi Calm Calm - N/A   Partly Cloudy
5:18 AM 42.8 °F - 42.8 °F 100% 30.10 in 1.8 mi Calm Calm - N/A   Partly Cloudy
5:25 AM 42.8 °F - 41.0 °F 93% 30.10 in 0.8 mi Calm Calm - N/A   Clear
5:29 AM 42.8 °F - 41.0 °F 93% 30.10 in 1.0 mi Calm Calm - N/A   Mist
5:37 AM 41.0 °F - 39.2 °F 93% 30.11 in 1.5 mi Calm Calm - N/A   Partly Cloudy
5:47 AM 42.8 °F - 41.0 °F 93% 30.11 in 1.0 mi Calm Calm - N/A   Mist
5:52 AM 39.0 °F - 39.0 °F 100% 30.14 in 0.2 mi Calm Calm - N/A Fog Fog
6:05 AM 42.8 °F - 41.0 °F 93% 30.12 in 1.0 mi Calm Calm - N/A   Mostly Cloudy
6:08 AM 42.8 °F - 41.0 °F 93% 30.12 in 3.0 mi Calm Calm - N/A   Mostly Cloudy
6:22 AM 41.0 °F - 39.2 °F 93% 30.13 in 1.5 mi Calm Calm - N/A   Partly Cloudy
6:29 AM 39.2 °F - 37.4 °F 93% 30.13 in 1.0 mi Calm Calm - N/A   Mist
6:40 AM 37.4 °F - 37.4 °F 100% 30.13 in 0.2 mi Calm Calm - N/A Fog Fog
6:52 AM 37.9 °F - 37.0 °F 97% 30.16 in 0.2 mi Calm Calm - N/A Fog Fog
7:12 AM 41.0 °F 38.0 °F 39.2 °F 93% 30.15 in 1.0 mi North 4.6 mph - N/A   Mostly Cloudy
7:14 AM 42.8 °F 40.1 °F 39.2 °F 87% 30.15 in 4.0 mi NNW 4.6 mph - N/A   Mostly Cloudy
7:22 AM 44.6 °F 43.1 °F 42.8 °F 93% 30.15 in 10.0 mi NNW 3.5 mph - N/A   Scattered Clouds
8:52 AM 50.0 °F - 39.9 °F 68% 30.19 in 10.0 mi NW 8.1 mph - N/A   Clear
9:52 AM 52.0 °F - 39.0 °F 61% 30.20 in 10.0 mi NW 8.1 mph - 0.01 in   Clear
10:52 AM 54.0 °F - 39.0 °F 57% 30.21 in 10.0 mi WNW 10.4 mph - N/A   Mostly Cloudy
11:52 AM 54.0 °F - 37.9 °F 55% 30.21 in 10.0 mi NW 8.1 mph - N/A   Mostly Cloudy
12:52 PM 57.0 °F - 39.0 °F 51% 30.20 in 10.0 mi North 13.8 mph 19.6 mph N/A   Mostly Cloudy
1:52 PM 57.0 °F - 37.0 °F 47% 30.20 in 10.0 mi NNW 9.2 mph - N/A   Partly Cloudy
2:52 PM 57.9 °F - 37.0 °F 46% 30.20 in 10.0 mi NNW 8.1 mph 17.3 mph N/A   Clear
3:52 PM 57.0 °F - 37.0 °F 47% 30.20 in 10.0 mi NW 6.9 mph - N/A   Partly Cloudy
4:52 PM 55.9 °F - 35.1 °F 45% 30.22 in 10.0 mi NNW 6.9 mph - N/A   Clear
5:52 PM 53.1 °F - 36.0 °F 52% 30.25 in 10.0 mi NNW 6.9 mph - N/A   Clear
7:52 PM 41.0 °F - 37.0 °F 86% 30.29 in 10.0 mi Calm Calm - N/A   Clear
8:52 PM 37.9 °F - 36.0 °F 93% 30.29 in 10.0 mi Calm Calm - N/A   Clear
9:52 PM 32.0 °F - 30.0 °F 92% 30.30 in 10.0 mi Calm Calm - N/A   Partly Cloudy
10:05 PM 35.6 °F 32.8 °F 33.8 °F 93% 30.27 in 4.0 mi SSW 3.5 mph - N/A   Mostly Cloudy
10:07 PM 35.6 °F 31.7 °F 33.8 °F 93% 30.27 in 1.0 mi South 4.6 mph - N/A   Mostly Cloudy
10:40 PM 33.8 °F - 30.2 °F 87% 30.27 in 1.5 mi Calm Calm - N/A   Overcast
10:46 PM 33.8 °F - 33.8 °F 100% 30.27 in 0.8 mi Calm Calm - N/A   Mist
10:52 PM 33.1 °F - 32.0 °F 96% 30.30 in 0.2 mi Calm Calm - N/A Fog Fog
11:52 PM 33.1 °F - 32.0 °F 96% 30.30 in 0.2 mi Calm Calm - N/A Fog Fog